QPF
0.00 0.00 0.00 0.00 0.00 0.00 0.00 0.02 0.02 0.02 0.02 0.05 0.07 0.07 0.00 0.00 0.00 0.00 0.00 0.00 0.00 0.00 0.00 0.01 0.02 0.01 0.00 0.00 0.00 0.01 0.00 0.02 0.04 0.00 0.00 0.00 0.01 0.01 0.00 0.02 0.01 0.00 0.00 0.00 0.00 0.00 0.00 0.00 0.00
0.00 0.00 0.00 0.00 0.00 0.00 0.00 0.01 0.05 0.05 0.12 0.11 0.10 0.02 0.00 0.01 0.00 0.00 0.00 0.00 0.00 0.00 0.00 0.00 0.03 0.07 0.04 0.04 0.03 0.01 0.00 0.00 0.00 0.00 0.01 0.01 0.01 0.01 0.02 0.01 0.00 0.00 0.00 0.00 0.00 0.00 0.02 0.03 0.01
0.00 0.00 0.00 0.00 0.00 0.00 0.00 0.00 0.04 0.07 0.08 0.10 0.05 0.06 0.01 0.02 0.00 0.00 0.00 0.00 0.00 0.00 0.00 0.00 0.01 0.04 0.04 0.06 0.02 0.01 0.01 0.00 0.00 0.00 0.01 0.01 0.01 0.00 0.01 0.01 0.00 0.00 0.00 0.00 0.00 0.00 0.00 0.00 0.01
0.02 0.01 0.00 0.00 0.00 0.00 0.00 0.00 0.01 0.02 0.02 0.02 0.00 0.01 0.00 0.00 0.00 0.00 0.00 0.00 0.00 0.00 0.00 0.01 0.05 0.05 0.01 0.01 0.00 0.00 0.00 0.01 0.01 0.00 0.00 0.01 0.00 0.01 0.00 0.00 0.00 0.00 0.00 0.00 0.00 0.00 0.00 0.00 0.00
0.00 0.01 0.00 0.00 0.00 0.01 0.00 0.00 0.00 0.00 0.00 0.00 0.00 0.00 0.00 0.00 0.00 0.00 0.00 0.00 0.00 0.00 0.01 0.05 0.06 0.01 0.00 0.00 0.01 0.01 0.00 0.00 0.00 0.00 0.00 0.00 0.00 0.00 0.00 0.00 0.00 0.00 0.00 0.00 0.00 0.00 0.00 0.00 0.00
0.03 0.00 0.00 0.00 0.00 0.00 0.00 0.00 0.00 0.01 0.00 0.00 0.00 0.00 0.00 0.00 0.00 0.00 0.00 0.00 0.00 0.00 0.00 0.01 0.01 0.00 0.00 0.00 0.02 0.01 0.00 0.00 0.00 0.00 0.00 0.00 0.00 0.00 0.00 0.00 0.00 0.00 0.00 0.00 0.00 0.00 0.00 0.00 0.00
0.00 0.00 0.00 0.00 0.00 0.00 0.00 0.01 0.00 0.00 0.00 0.00 0.00 0.00 0.00 0.00 0.00 0.00 0.00 0.00 0.00 0.00 0.00 0.00 0.00 0.00 0.01 0.02 0.01 0.00 0.00 0.00 0.00 0.00 0.00 0.00 0.00 0.00 0.00 0.00 0.00 0.00 0.00 0.00 0.00 0.00 0.00 0.00 0.00
0.00 0.00 0.00 0.00 0.00 0.00 0.00 0.02 0.01 0.00 0.00 0.00 0.00 0.00 0.00 0.00 0.00 0.00 0.00 0.00 0.00 0.00 0.00 0.00 0.00 0.00 0.00 0.00 0.00 0.00 0.00 0.00 0.00 0.00 0.00 0.00 0.00 0.00 0.00 0.00 0.00 0.00 0.00 0.00 0.00 0.00 0.00 0.00 0.00
0.00 0.00 0.00 0.00 0.00 0.00 0.00 0.00 0.00 0.00 0.00 0.00 0.00 0.00 0.00 0.00 0.00 0.00 0.00 0.00 0.00 0.00 0.00 0.00 0.00 0.00 0.00 0.00 0.00 0.00 0.00 0.00 0.00 0.00 0.00 0.00 0.00 0.00 0.01 0.01 0.00 0.00 0.00 0.00 0.00 0.00 0.00 0.00 0.00
0.00 0.00 0.00 0.00 0.00 0.00 0.00 0.00 0.00 0.00 0.00 0.00 0.00 0.00 0.00 0.00 0.00 0.00 0.00 0.00 0.00 0.00 0.00 0.00 0.00 0.00 0.00 0.00 0.00 0.00 0.00 0.00 0.00 0.00 0.00 0.00 0.00 0.00 0.00 0.01 0.00 0.00 0.00 0.00 0.00 0.00 0.00 0.00 0.00
0.00 0.00 0.00 0.00 0.00 0.00 0.00 0.00 0.00 0.00 0.00 0.00 0.00 0.00 0.00 0.00 0.00 0.00 0.00 0.00 0.00 0.00 0.00 0.00 0.00 0.00 0.00 0.00 0.00 0.00 0.00 0.00 0.00 0.00 0.00 0.00 0.00 0.00 0.00 0.00 0.00 0.00 0.00 0.00 0.00 0.00 0.00 0.00 0.00
0.00 0.00 0.00 0.00 0.00 0.00 0.00 0.00 0.00 0.00 0.00 0.00 0.00 0.00 0.00 0.00 0.00 0.00 0.00 0.00 0.00 0.00 0.00 0.00 0.00 0.00 0.00 0.00 0.00 0.00 0.00 0.00 0.00 0.00 0.00 0.00 0.00 0.00 0.00 0.00 0.00 0.00 0.00 0.00 0.00 0.00 0.00 0.00 0.00
0.00 0.00 0.00 0.00 0.00 0.00 0.00 0.00 0.00 0.01 0.00 0.00 0.00 0.00 0.00 0.00 0.00 0.00 0.01 0.00 0.00 0.00 0.00 0.00 0.00 0.00 0.00 0.00 0.00 0.00 0.00 0.00 0.00 0.00 0.00 0.00 0.00 0.00 0.00 0.00 0.00 0.00 0.00 0.00 0.00 0.00 0.00 0.00 0.00
0.00 0.00 0.00 0.00 0.00 0.00 0.00 0.00 0.00 0.00 0.00 0.00 0.00 0.00 0.00 0.00 0.00 0.00 0.00 0.00 0.00 0.00 0.00 0.00 0.00 0.00 0.00 0.00 0.00 0.00 0.00 0.00 0.00 0.00 0.00 0.00 0.00 0.00 0.00 0.00 0.00 0.00 0.00 0.00 0.00 0.00 0.00 0.00 0.00
0.00 0.00 0.00 0.00 0.00 0.00 0.00 0.00 0.00 0.00 0.00 0.00 0.00 0.00 0.00 0.00 0.00 0.00 0.00 0.00 0.00 0.00 0.00 0.00 0.00 0.00 0.00 0.00 0.00 0.00 0.00 0.00 0.00 0.00 0.00 0.00 0.00 0.00 0.00 0.01 0.00 0.00 0.00 0.00 0.00 0.00 0.00 0.00 0.00
0.00 0.00 0.00 0.00 0.00 0.00 0.00 0.00 0.00 0.00 0.00 0.00 0.00 0.00 0.00 0.00 0.00 0.00 0.00 0.00 0.00 0.00 0.00 0.00 0.00 0.00 0.00 0.00 0.00 0.00 0.00 0.00 0.00 0.00 0.00 0.00 0.00 0.00 0.00 0.00 0.00 0.00 0.00 0.00 0.00 0.00 0.00 0.00 0.00
0.00 0.00 0.00 0.00 0.00 0.00 0.00 0.00 0.00 0.00 0.00 0.00 0.00 0.00 0.00 0.00 0.00 0.00 0.00 0.00 0.00 0.00 0.00 0.00 0.00 0.00 0.00 0.00 0.00 0.00 0.00 0.00 0.00 0.00 0.00 0.00 0.00 0.00 0.00 0.00 0.00 0.00 0.00 0.00 0.00 0.00 0.00 0.00 0.00
0.00 0.00 0.00 0.00 0.00 0.00 0.00 0.00 0.00 0.00 0.00 0.00 0.00 0.00 0.00 0.00 0.00 0.00 0.00 0.00 0.00 0.00 0.00 0.00 0.00 0.00 0.00 0.00 0.00 0.00 0.00 0.00 0.00 0.00 0.00 0.00 0.00 0.00 0.00 0.00 0.00 0.00 0.00 0.00 0.00 0.00 0.00 0.00 0.00
0.00 0.00 0.00 0.00 0.00 0.00 0.00 0.00 0.00 0.00 0.00 0.00 0.00 0.00 0.00 0.00 0.00 0.00 0.00 0.00 0.00 0.00 0.00 0.00 0.00 0.00 0.00 0.00 0.00 0.00 0.00 0.00 0.00 0.00 0.00 0.00 0.00 0.00 0.00 0.00 0.00 0.00 0.00 0.00 0.00 0.00 0.00 0.00 0.00
0.00 0.00 0.00 0.00 0.00 0.00 0.00 0.00 0.00 0.00 0.00 0.00 0.00 0.00 0.00 0.00 0.00 0.00 0.00 0.00 0.00 0.00 0.00 0.00 0.00 0.00 0.00 0.00 0.00 0.00 0.00 0.00 0.00 0.01 0.01 0.03 0.05 0.05 0.01 0.06 0.07 0.07 0.02 0.00 0.00 0.00 0.02 0.00 0.00
0.00 0.00 0.00 0.00 0.00 0.00 0.00 0.00 0.00 0.00 0.00 0.00 0.00 0.00 0.00 0.00 0.00 0.00 0.00 0.00 0.00 0.00 0.00 0.00 0.01 0.01 0.01 0.00 0.00 0.00 0.00 0.00 0.00 0.00 0.04 0.09 0.17 0.17 0.03 0.06 0.13 0.14 0.07 0.04 0.05 0.01 0.04 0.04 0.02
0.00 0.00 0.00 0.00 0.00 0.00 0.00 0.00 0.00 0.00 0.00 0.00 0.00 0.00 0.00 0.00 0.00 0.00 0.00 0.00 0.00 0.00 0.00 0.00 0.00 0.00 0.00 0.00 0.00 0.00 0.01 0.03 0.03 0.06 0.15 0.15 0.02 0.00 0.00 0.00 0.09 0.20 0.09 0.11 0.09 0.06 0.03 0.00 0.00
0.00 0.00 0.00 0.00 0.00 0.00 0.00 0.00 0.00 0.00 0.00 0.00 0.00 0.00 0.00 0.00 0.00 0.00 0.00 0.00 0.00 0.00 0.00 0.00 0.00 0.00 0.00 0.00 0.00 0.00 0.00 0.00 0.04 0.11 0.10 0.03 0.00 0.00 0.00 0.01 0.02 0.02 0.01 0.03 0.05 0.03 0.04 0.03 0.03
0.00 0.00 0.00 0.00 0.00 0.00 0.00 0.00 0.00 0.00 0.00 0.00 0.00 0.00 0.00 0.00 0.00 0.00 0.00 0.00 0.00 0.00 0.00 0.00 0.00 0.00 0.02 0.00 0.01 0.01 0.00 0.00 0.06 0.13 0.11 0.02 0.03 0.09 0.04 0.05 0.06 0.01 0.01 0.00 0.00 0.00 0.01 0.01 0.00
0.00 0.00 0.00 0.00 0.00 0.00 0.00 0.00 0.00 0.00 0.00 0.00 0.00 0.00 0.00 0.00 0.00 0.00 0.00 0.00 0.00 0.00 0.00 0.00 0.00 0.00 0.01 0.01 0.04 0.06 0.07 0.11 0.15 0.15 0.16 0.12 0.10 0.09 0.04 0.02 0.01 0.01 0.00 0.01 0.01 0.00 0.00 0.00 0.00
0.00 0.00 0.00 0.00 0.00 0.00 0.00 0.00 0.00 0.00 0.00 0.00 0.00 0.00 0.00 0.00 0.00 0.00 0.00 0.00 0.00 0.00 0.00 0.00 0.00 0.01 0.01 0.09 0.17 0.11 0.10 0.18 0.22 0.19 0.11 0.08 0.04 0.02 0.01 0.00 0.00 0.00 0.00 0.00 0.00 0.00 0.00 0.00 0.00
0.00 0.00 0.00 0.00 0.00 0.00 0.00 0.00 0.00 0.00 0.00 0.00 0.00 0.00 0.00 0.00 0.00 0.00 0.00 0.00 0.00 0.00 0.00 0.01 0.04 0.07 0.21 0.25 0.21 0.14 0.17 0.18 0.13 0.08 0.09 0.09 0.05 0.02 0.00 0.00 0.00 0.00 0.00 0.00 0.00 0.00 0.00 0.00 0.00
0.00 0.00 0.00 0.00 0.00 0.00 0.00 0.00 0.00 0.00 0.00 0.00 0.00 0.00 0.00 0.00 0.00 0.01 0.00 0.00 0.00 0.01 0.03 0.16 0.16 0.20 0.34 0.32 0.26 0.20 0.14 0.10 0.09 0.09 0.08 0.07 0.04 0.01 0.00 0.00 0.00 0.00 0.00 0.00 0.00 0.00 0.00 0.00 0.00
0.00 0.00 0.00 0.00 0.00 0.00 0.00 0.00 0.00 0.00 0.00 0.00 0.00 0.00 0.00 0.00 0.00 0.04 0.04 0.10 0.15 0.19 0.40 0.50 0.40 0.34 0.29 0.17 0.13 0.07 0.06 0.05 0.04 0.03 0.03 0.03 0.02 0.00 0.00 0.00 0.00 0.00 0.00 0.00 0.00 0.00 0.00 0.00 0.00
0.00 0.00 0.00 0.00 0.00 0.00 0.00 0.00 0.00 0.00 0.00 0.00 0.00 0.01 0.05 0.05 0.09 0.12 0.19 0.26 0.30 0.29 0.27 0.20 0.13 0.14 0.11 0.14 0.17 0.11 0.07 0.05 0.03 0.02 0.04 0.02 0.01 0.00 0.00 0.00 0.00 0.00 0.00 0.00 0.00 0.00 0.00 0.00 0.00
MSLP
1010.26 1010.17 1010.30 1010.51 1011.43 1011.74 1012.13 1012.48 1012.32 1012.96 1013.50 1013.64 1014.03 1014.53 1015.08 1015.58 1015.86 1016.83 1016.64 1016.59 1016.35 1016.52 1016.47 1016.60 1016.63 1016.73 1016.75 1016.89 1017.01 1017.11 1017.03 1017.09 1017.10 1017.18 1017.24 1017.22 1017.24 1017.29 1017.36 1017.37 1017.37 1017.43 1017.59 1017.70 1017.78 1017.91 1018.04 1018.06 1018.14
1010.34 1010.53 1010.57 1010.94 1011.74 1012.23 1012.50 1012.34 1012.55 1012.99 1013.62 1013.67 1014.21 1014.49 1014.94 1015.76 1016.03 1016.54 1016.63 1016.51 1016.35 1016.49 1016.69 1016.82 1016.82 1016.89 1017.01 1017.23 1017.31 1017.28 1017.32 1017.35 1017.38 1017.40 1017.53 1017.44 1017.49 1017.54 1017.71 1017.66 1017.72 1017.76 1017.87 1017.93 1017.95 1018.04 1018.18 1018.27 1018.38
1010.49 1010.43 1010.97 1011.37 1011.95 1012.27 1012.20 1012.42 1012.69 1013.11 1013.37 1013.70 1014.25 1014.57 1015.02 1015.79 1016.34 1016.41 1016.22 1016.30 1016.37 1016.72 1016.91 1016.95 1016.99 1017.11 1017.32 1017.39 1017.42 1017.53 1017.49 1017.59 1017.58 1017.62 1017.64 1017.71 1017.71 1017.80 1017.93 1017.97 1018.03 1018.02 1018.05 1018.17 1018.24 1018.35 1018.53 1018.60 1018.62
1010.58 1010.78 1011.34 1011.48 1011.62 1011.52 1011.63 1012.07 1012.30 1012.87 1013.38 1013.83 1014.05 1014.87 1015.41 1015.76 1015.98 1016.04 1016.24 1016.26 1016.77 1017.06 1017.12 1017.09 1017.17 1017.30 1017.54 1017.64 1017.75 1017.83 1017.86 1017.83 1017.77 1017.83 1017.90 1017.93 1018.03 1018.07 1018.27 1018.30 1018.29 1018.19 1018.29 1018.47 1018.56 1018.66 1018.72 1018.70 1018.71
1010.76 1011.18 1011.53 1011.62 1011.32 1011.40 1011.44 1011.96 1012.04 1012.51 1013.21 1013.81 1013.95 1015.24 1015.73 1016.21 1016.02 1016.36 1016.53 1016.74 1017.04 1017.29 1017.28 1017.39 1017.51 1017.57 1017.68 1017.85 1017.93 1017.98 1018.04 1018.02 1018.05 1018.10 1018.19 1018.22 1018.33 1018.48 1018.53 1018.53 1018.52 1018.44 1018.39 1018.50 1018.65 1018.65 1018.67 1018.71 1018.88
1011.12 1011.81 1011.81 1011.77 1011.54 1011.51 1011.75 1011.93 1012.12 1012.79 1013.44 1014.03 1014.66 1015.31 1016.42 1016.53 1016.50 1016.81 1016.92 1017.07 1017.12 1017.40 1017.56 1017.65 1017.65 1017.78 1017.91 1017.99 1017.96 1018.07 1018.18 1018.18 1018.27 1018.40 1018.56 1018.65 1018.76 1018.75 1018.78 1018.80 1018.78 1018.66 1018.59 1018.64 1018.68 1018.66 1018.79 1018.87 1018.73
1011.64 1011.91 1011.81 1011.52 1011.58 1011.59 1011.80 1011.87 1012.40 1013.14 1013.61 1014.09 1014.47 1015.61 1016.69 1016.95 1016.87 1017.08 1017.27 1017.29 1017.32 1017.59 1017.81 1017.99 1017.98 1018.02 1018.06 1018.09 1018.09 1018.20 1018.36 1018.48 1018.52 1018.63 1018.75 1018.87 1018.89 1018.96 1019.02 1018.91 1018.87 1018.83 1018.89 1018.85 1018.73 1018.67 1018.77 1018.64 1018.59
1011.85 1012.04 1011.49 1010.99 1011.05 1011.23 1011.52 1012.12 1012.51 1013.12 1013.78 1013.96 1014.36 1015.60 1016.42 1016.74 1017.04 1017.46 1017.68 1017.86 1018.01 1018.00 1018.15 1018.30 1018.37 1018.37 1018.43 1018.43 1018.41 1018.46 1018.61 1018.73 1018.75 1018.74 1018.83 1018.86 1018.79 1018.95 1018.90 1018.99 1018.93 1018.92 1018.93 1018.90 1018.76 1018.70 1018.64 1018.55 1018.52
1011.82 1011.80 1011.19 1010.52 1010.52 1010.83 1011.26 1011.80 1012.56 1013.08 1013.58 1013.92 1014.18 1014.86 1015.78 1016.76 1017.28 1017.81 1018.19 1018.41 1018.48 1018.57 1018.64 1018.54 1018.56 1018.61 1018.70 1018.72 1018.62 1018.62 1018.71 1018.83 1018.79 1018.80 1018.84 1018.75 1019.01 1018.99 1018.81 1018.86 1018.79 1018.78 1018.84 1018.86 1018.74 1018.63 1018.61 1018.56 1018.49
1011.51 1011.48 1010.40 1009.51 1009.56 1010.07 1010.86 1011.53 1012.40 1013.24 1013.77 1014.51 1014.73 1015.53 1016.24 1016.96 1017.52 1018.00 1018.30 1018.51 1018.68 1018.77 1018.70 1018.52 1018.65 1018.85 1018.88 1018.71 1018.72 1018.83 1018.87 1018.97 1018.98 1019.04 1018.89 1018.75 1018.93 1019.05 1019.02 1018.80 1018.66 1018.53 1018.50 1018.57 1018.60 1018.64 1018.63 1018.50 1018.57
1011.03 1010.56 1009.34 1008.94 1009.08 1009.58 1010.92 1011.72 1012.29 1013.13 1013.87 1014.20 1014.35 1015.53 1016.39 1017.09 1017.70 1018.03 1018.22 1018.25 1018.40 1018.72 1018.75 1018.73 1018.73 1018.92 1018.97 1018.90 1018.92 1019.06 1019.07 1019.08 1019.10 1019.03 1018.94 1018.88 1018.83 1019.01 1018.82 1018.89 1018.72 1018.43 1018.32 1018.63 1018.64 1018.72 1018.65 1018.60 1018.69
1010.44 1009.56 1009.06 1008.66 1009.18 1009.89 1010.91 1011.60 1012.47 1012.89 1013.24 1013.93 1014.78 1015.20 1016.00 1016.86 1017.40 1017.66 1017.97 1018.26 1018.37 1018.58 1018.75 1018.82 1018.79 1018.93 1018.97 1019.00 1019.07 1019.15 1019.08 1019.09 1019.14 1019.02 1019.05 1019.11 1019.14 1018.83 1018.79 1018.82 1018.65 1018.47 1018.48 1018.97 1019.16 1019.13 1018.80 1018.63 1018.77
1009.75 1009.36 1008.97 1008.87 1009.52 1010.07 1010.91 1011.76 1012.37 1013.20 1013.46 1014.25 1015.03 1015.68 1016.07 1016.68 1017.22 1017.46 1017.71 1017.98 1018.40 1018.69 1018.62 1018.68 1018.75 1018.81 1018.86 1018.98 1018.98 1019.07 1019.10 1019.15 1019.27 1019.26 1019.14 1019.07 1019.11 1019.06 1018.73 1018.76 1018.70 1018.52 1018.73 1018.99 1019.09 1018.94 1018.92 1018.93 1018.99
1009.64 1009.39 1009.50 1009.64 1010.09 1010.54 1011.15 1012.21 1012.47 1013.73 1013.90 1014.59 1015.14 1015.64 1016.16 1016.55 1016.89 1017.36 1017.65 1017.80 1018.00 1018.31 1018.59 1018.52 1018.54 1018.43 1018.64 1018.87 1018.93 1018.89 1018.91 1019.08 1019.29 1019.36 1019.27 1019.12 1019.17 1019.23 1018.99 1019.01 1018.96 1018.75 1019.06 1018.98 1018.94 1019.06 1018.90 1019.07 1018.84
1009.53 1009.75 1010.14 1010.72 1010.82 1011.31 1011.64 1012.70 1012.99 1013.54 1014.10 1014.74 1015.30 1015.66 1015.98 1016.31 1016.81 1016.90 1016.96 1017.41 1017.63 1017.80 1018.17 1018.39 1018.41 1018.39 1018.63 1018.85 1018.81 1018.85 1018.69 1018.73 1019.09 1019.23 1019.21 1019.15 1019.11 1019.13 1018.82 1018.86 1018.80 1018.63 1018.87 1019.07 1019.17 1019.23 1019.25 1019.40 1019.10
1010.53 1010.81 1011.13 1011.17 1011.09 1011.85 1011.98 1012.89 1013.31 1013.78 1014.26 1014.87 1015.31 1015.56 1015.81 1016.00 1016.28 1016.43 1016.75 1017.04 1017.32 1017.72 1017.93 1018.16 1018.22 1018.36 1018.51 1018.74 1018.80 1018.83 1018.78 1018.80 1018.83 1018.96 1019.04 1019.00 1019.04 1019.11 1019.26 1019.17 1019.00 1018.77 1018.79 1019.00 1019.18 1019.15 1019.02 1018.77 1018.42
1011.83 1012.05 1011.81 1011.42 1011.09 1011.39 1012.23 1012.96 1013.29 1013.78 1014.39 1014.96 1015.20 1015.32 1015.48 1015.91 1016.10 1016.18 1016.23 1016.61 1016.87 1017.28 1017.70 1017.99 1018.14 1018.26 1018.42 1018.60 1018.63 1018.76 1018.79 1018.85 1018.71 1018.87 1018.92 1018.85 1018.80 1018.91 1019.18 1019.21 1019.07 1018.81 1018.79 1018.98 1019.19 1019.32 1019.31 1019.15 1018.84
1012.03 1012.14 1011.81 1011.23 1011.09 1011.39 1012.17 1012.70 1013.26 1013.69 1014.07 1014.53 1014.90 1015.08 1015.21 1015.24 1015.06 1015.37 1015.74 1016.09 1016.47 1016.93 1017.39 1017.80 1018.08 1018.19 1018.54 1018.70 1018.69 1018.58 1018.51 1018.59 1018.77 1018.82 1018.75 1018.69 1018.68 1018.68 1018.93 1018.92 1018.95 1018.94 1018.95 1019.21 1019.24 1019.30 1019.23 1019.26 1019.19
1011.20 1011.40 1011.66 1011.69 1011.62 1012.06 1012.40 1012.83 1013.18 1013.40 1014.00 1014.34 1014.56 1014.64 1014.76 1014.70 1014.44 1014.89 1015.33 1015.83 1016.30 1016.83 1017.34 1017.58 1017.99 1018.07 1018.50 1018.65 1018.79 1018.92 1018.86 1018.84 1018.61 1018.61 1018.60 1018.60 1018.59 1018.70 1018.77 1018.76 1018.85 1018.87 1019.14 1019.36 1019.51 1019.52 1019.65 1019.41 1019.27
1011.33 1011.45 1011.88 1012.14 1012.24 1012.59 1013.31 1013.24 1013.21 1013.11 1012.93 1013.11 1013.62 1013.97 1013.99 1014.28 1014.47 1014.60 1014.96 1015.36 1015.82 1016.20 1016.68 1017.29 1017.45 1017.76 1018.13 1018.44 1018.47 1018.42 1018.47 1018.59 1018.73 1018.72 1018.96 1019.28 1019.14 1019.16 1019.11 1019.12 1019.07 1019.06 1019.24 1019.37 1019.40 1019.51 1019.49 1019.58 1019.50
1011.29 1011.51 1011.90 1012.68 1012.94 1013.37 1013.64 1013.31 1012.83 1012.59 1012.57 1012.62 1012.70 1012.94 1013.35 1013.42 1013.83 1014.17 1014.62 1014.81 1015.35 1015.89 1016.25 1016.77 1017.24 1017.48 1017.84 1018.18 1018.48 1018.57 1018.68 1018.87 1019.06 1019.23 1019.50 1019.43 1019.65 1019.49 1019.49 1019.52 1019.54 1019.62 1019.58 1019.70 1019.74 1019.63 1019.54 1019.70 1019.69
1011.01 1011.18 1012.30 1013.20 1013.89 1014.71 1014.88 1014.49 1012.79 1012.04 1011.67 1011.77 1011.89 1012.22 1012.26 1012.64 1012.89 1013.44 1013.86 1014.38 1014.64 1015.02 1015.60 1016.18 1016.74 1017.14 1017.49 1017.87 1018.20 1018.27 1018.36 1018.71 1018.95 1019.22 1019.64 1019.66 1019.36 1019.40 1019.50 1019.71 1019.67 1019.80 1019.86 1019.90 1019.87 1019.95 1020.08 1020.15 1020.22
1010.99 1010.86 1012.32 1013.71 1014.94 1015.63 1015.57 1015.56 1012.50 1012.16 1011.74 1010.72 1010.86 1011.07 1011.34 1011.68 1012.24 1012.67 1013.16 1013.51 1013.91 1014.67 1015.13 1015.65 1016.30 1016.87 1017.25 1017.60 1017.98 1018.22 1018.35 1018.52 1018.82 1019.22 1019.51 1019.75 1019.54 1019.55 1019.62 1019.85 1020.02 1020.15 1020.15 1020.10 1020.27 1020.32 1020.35 1020.39 1020.45
1010.98 1012.13 1013.51 1014.80 1015.70 1016.13 1015.15 1015.21 1012.54 1012.14 1010.81 1010.06 1010.26 1010.36 1010.59 1010.94 1011.58 1012.04 1012.72 1013.31 1013.77 1014.39 1014.93 1015.39 1016.01 1016.48 1017.01 1017.38 1017.70 1017.95 1018.17 1018.48 1019.11 1019.35 1019.65 1020.05 1020.35 1020.25 1020.13 1020.23 1020.38 1020.48 1020.48 1020.63 1020.64 1020.58 1020.82 1020.99 1021.07
1010.90 1012.41 1014.33 1015.66 1016.48 1016.22 1015.54 1015.30 1012.38 1011.48 1010.87 1010.47 1009.59 1009.70 1009.80 1010.16 1011.09 1011.73 1012.45 1013.10 1013.78 1014.20 1014.75 1015.31 1015.92 1016.43 1016.66 1017.07 1017.41 1017.80 1018.17 1018.54 1019.13 1019.69 1020.10 1020.59 1020.81 1020.96 1021.04 1020.95 1021.01 1020.95 1020.96 1020.92 1021.06 1021.21 1021.28 1021.40 1021.56
1010.71 1011.58 1013.03 1014.65 1016.14 1015.89 1015.70 1014.56 1012.07 1011.85 1011.56 1010.79 1009.66 1009.44 1009.99 1010.34 1011.01 1011.67 1012.02 1012.79 1013.38 1013.58 1014.33 1015.16 1015.86 1016.41 1016.81 1017.34 1017.79 1018.39 1018.81 1019.16 1019.68 1020.15 1020.26 1020.90 1021.34 1021.57 1021.56 1021.42 1021.53 1021.67 1021.63 1021.57 1021.49 1021.40 1021.46 1021.78 1021.78
1010.67 1011.44 1011.56 1013.47 1015.18 1015.61 1014.59 1013.26 1012.19 1012.11 1011.88 1011.73 1011.56 1011.40 1011.85 1012.11 1012.64 1013.19 1013.57 1013.90 1014.27 1014.38 1015.03 1015.83 1016.91 1017.58 1017.63 1018.31 1018.41 1019.00 1019.55 1020.04 1020.48 1020.96 1021.25 1021.52 1021.54 1021.69 1022.00 1022.05 1022.18 1022.20 1022.19 1022.29 1022.09 1022.08 1022.03 1021.74 1021.91
1008.78 1009.91 1011.98 1013.33 1014.78 1015.07 1014.29 1013.56 1012.56 1012.43 1012.71 1013.07 1013.37 1013.73 1013.91 1013.87 1013.97 1014.47 1014.92 1015.35 1015.87 1016.31 1016.63 1016.87 1017.58 1018.59 1018.78 1018.86 1019.18 1019.40 1020.03 1020.43 1020.67 1021.14 1021.38 1021.85 1021.75 1021.68 1021.91 1022.18 1022.41 1022.47 1022.39 1022.26 1022.41 1022.19 1022.46 1022.27 1022.21
1009.36 1010.28 1011.50 1012.23 1013.39 1014.00 1014.15 1013.37 1012.35 1012.67 1013.12 1013.77 1014.30 1014.74 1014.99 1015.08 1015.17 1015.35 1015.72 1016.09 1016.73 1017.49 1017.86 1018.07 1018.82 1020.24 1019.20 1019.23 1019.68 1019.22 1020.32 1020.77 1020.93 1021.25 1021.60 1021.58 1021.71 1021.71 1022.17 1022.10 1022.43 1022.63 1022.68 1022.36 1022.42 1022.43 1022.66 1022.36 1022.31
1008.72 1009.53 1010.44 1012.31 1013.56 1014.01 1013.91 1012.99 1012.67 1012.97 1013.72 1014.46 1015.05 1015.41 1015.51 1015.50 1015.58 1015.74 1015.89 1016.20 1016.98 1017.29 1018.51 1019.02 1017.55 1017.61 1018.89 1017.91 1020.06 1020.17 1020.58 1021.19 1021.28 1021.53 1021.73 1021.74 1021.80 1021.71 1021.95 1022.21 1022.77 1023.00 1022.83 1022.55 1022.41 1022.63 1022.73 1022.38 1022.47
Thickness
5800 5803 5804 5796 5761 5757 5747 5752 5774 5759 5759 5769 5772 5763 5755 5754 5752 5734 5763 5766 5767 5766 5764 5762 5762 5762 5762 5761 5760 5759 5759 5759 5759 5758 5757 5757 5757 5756 5756 5757 5758 5757 5755 5754 5752 5750 5749 5747 5744
5799 5800 5798 5782 5749 5737 5742 5768 5763 5767 5765 5774 5770 5770 5761 5750 5762 5759 5760 5769 5769 5767 5764 5762 5762 5762 5760 5758 5758 5757 5757 5757 5756 5755 5755 5756 5756 5756 5755 5756 5757 5757 5756 5755 5754 5753 5752 5749 5747
5800 5803 5782 5765 5750 5740 5747 5766 5767 5769 5775 5773 5766 5771 5767 5756 5762 5764 5771 5772 5771 5768 5764 5763 5762 5762 5759 5759 5758 5756 5756 5754 5754 5754 5754 5755 5756 5756 5755 5757 5757 5758 5757 5756 5756 5754 5751 5750 5750
5797 5791 5782 5759 5759 5770 5771 5772 5777 5774 5777 5778 5778 5761 5771 5774 5770 5773 5774 5773 5770 5767 5764 5763 5763 5762 5760 5759 5756 5755 5754 5753 5754 5754 5755 5756 5756 5756 5756 5757 5758 5759 5759 5757 5756 5755 5753 5753 5752
5799 5786 5761 5762 5769 5775 5780 5782 5785 5778 5776 5776 5781 5761 5761 5770 5778 5775 5774 5772 5769 5767 5764 5763 5761 5761 5760 5758 5756 5754 5754 5754 5754 5755 5755 5756 5756 5756 5757 5757 5759 5760 5761 5760 5759 5759 5758 5756 5753
5779 5778 5757 5751 5765 5775 5780 5785 5783 5777 5776 5775 5769 5764 5758 5773 5774 5771 5772 5770 5769 5767 5764 5762 5761 5761 5759 5758 5757 5756 5755 5756 5756 5756 5756 5756 5757 5757 5758 5759 5759 5762 5763 5763 5762 5761 5759 5758 5759
5778 5770 5763 5765 5764 5770 5776 5794 5781 5775 5774 5770 5778 5757 5760 5766 5773 5773 5771 5771 5768 5766 5763 5761 5761 5760 5760 5759 5759 5757 5757 5757 5758 5758 5758 5758 5759 5759 5760 5762 5762 5762 5762 5763 5764 5764 5763 5764 5765
5783 5776 5774 5779 5768 5770 5785 5784 5788 5779 5771 5787 5785 5758 5755 5768 5773 5771 5768 5766 5765 5763 5761 5759 5760 5760 5759 5759 5759 5758 5757 5757 5758 5760 5761 5761 5762 5762 5764 5763 5764 5764 5764 5764 5765 5766 5767 5768 5768
5796 5769 5765 5779 5780 5779 5792 5784 5792 5791 5781 5785 5788 5781 5777 5774 5772 5766 5762 5761 5760 5760 5758 5758 5759 5760 5759 5760 5759 5758 5758 5758 5760 5762 5762 5764 5764 5766 5767 5767 5768 5767 5766 5766 5767 5768 5769 5771 5771
5785 5767 5780 5803 5803 5794 5794 5791 5786 5779 5777 5772 5776 5780 5777 5773 5768 5762 5759 5757 5757 5757 5758 5760 5760 5760 5759 5760 5762 5761 5761 5761 5762 5762 5763 5766 5768 5768 5768 5770 5772 5772 5772 5771 5770 5770 5771 5774 5774
5792 5778 5804 5810 5814 5811 5794 5790 5795 5781 5771 5779 5777 5774 5773 5770 5766 5763 5762 5762 5761 5760 5760 5761 5762 5761 5760 5761 5763 5763 5763 5764 5765 5765 5765 5767 5769 5770 5772 5773 5774 5777 5777 5775 5774 5772 5774 5775 5775
5788 5806 5812 5816 5817 5808 5794 5798 5787 5790 5788 5791 5786 5785 5780 5770 5768 5767 5764 5764 5764 5762 5762 5763 5764 5763 5762 5762 5763 5765 5766 5766 5767 5769 5768 5769 5770 5772 5774 5775 5776 5779 5778 5774 5772 5771 5774 5775 5776
5801 5807 5816 5818 5813 5809 5806 5792 5790 5785 5794 5791 5785 5781 5778 5774 5770 5771 5770 5769 5765 5763 5765 5766 5765 5766 5766 5766 5766 5767 5768 5768 5768 5769 5770 5771 5772 5773 5775 5776 5776 5779 5778 5775 5774 5774 5774 5775 5773
5810 5812 5808 5809 5806 5807 5795 5788 5793 5784 5791 5785 5783 5778 5776 5775 5774 5771 5768 5769 5769 5768 5766 5769 5770 5771 5770 5770 5770 5771 5772 5772 5771 5771 5772 5773 5774 5774 5776 5774 5774 5776 5774 5775 5776 5775 5777 5775 5776
5815 5801 5802 5794 5797 5791 5798 5779 5779 5790 5790 5781 5779 5778 5778 5777 5775 5773 5776 5773 5773 5773 5772 5770 5771 5773 5772 5771 5773 5774 5775 5776 5774 5773 5773 5774 5774 5776 5779 5779 5777 5778 5777 5776 5776 5776 5775 5773 5775
5793 5787 5769 5795 5800 5794 5792 5761 5782 5790 5785 5777 5778 5778 5778 5778 5779 5780 5778 5777 5777 5775 5774 5773 5774 5774 5773 5772 5773 5774 5776 5777 5777 5776 5775 5775 5774 5774 5774 5776 5778 5779 5779 5777 5776 5777 5777 5778 5782
5772 5755 5765 5783 5805 5798 5788 5768 5783 5790 5783 5776 5777 5779 5780 5776 5778 5781 5784 5783 5782 5781 5777 5776 5776 5776 5776 5775 5774 5773 5773 5775 5777 5777 5776 5776 5776 5775 5774 5774 5774 5776 5777 5776 5775 5773 5772 5773 5776
5760 5760 5772 5776 5798 5799 5784 5779 5784 5787 5783 5779 5778 5780 5782 5782 5784 5789 5788 5789 5786 5784 5781 5778 5777 5777 5773 5771 5773 5776 5777 5776 5775 5776 5777 5776 5775 5775 5774 5774 5774 5776 5776 5774 5774 5771 5772 5771 5771
5787 5783 5777 5786 5800 5791 5788 5782 5782 5788 5782 5777 5777 5779 5781 5784 5793 5794 5793 5792 5789 5785 5780 5780 5778 5778 5775 5774 5772 5771 5771 5774 5777 5776 5775 5775 5774 5773 5773 5774 5774 5775 5773 5771 5771 5770 5768 5769 5770
5787 5779 5775 5784 5792 5787 5775 5778 5785 5790 5792 5792 5787 5785 5785 5786 5789 5792 5793 5793 5789 5788 5787 5782 5781 5779 5778 5775 5774 5774 5774 5773 5773 5774 5771 5767 5768 5768 5770 5770 5770 5770 5770 5769 5769 5769 5767 5767 5768
5778 5773 5775 5774 5779 5782 5777 5771 5782 5794 5798 5798 5798 5797 5794 5794 5792 5793 5792 5794 5791 5786 5786 5784 5781 5779 5778 5775 5773 5770 5769 5767 5767 5766 5763 5763 5762 5763 5765 5765 5765 5763 5762 5761 5761 5762 5763 5759 5762
5761 5791 5782 5769 5763 5745 5767 5741 5775 5788 5793 5796 5799 5796 5799 5801 5804 5801 5797 5794 5795 5793 5790 5787 5784 5781 5779 5776 5772 5770 5767 5764 5763 5761 5757 5756 5760 5759 5759 5757 5759 5757 5756 5756 5756 5755 5754 5752 5748
5778 5798 5783 5769 5749 5746 5750 5740 5774 5787 5784 5798 5802 5804 5804 5808 5806 5804 5801 5798 5799 5793 5789 5787 5784 5779 5777 5774 5770 5766 5765 5764 5762 5759 5756 5753 5755 5755 5754 5753 5751 5750 5750 5749 5747 5746 5746 5745 5743
5790 5775 5759 5747 5741 5726 5750 5749 5771 5774 5795 5809 5809 5808 5808 5810 5808 5807 5804 5799 5795 5794 5789 5786 5781 5777 5773 5770 5768 5765 5761 5759 5753 5753 5752 5748 5745 5745 5746 5746 5744 5743 5743 5741 5740 5740 5738 5735 5734
5780 5759 5723 5718 5712 5719 5741 5739 5777 5792 5802 5806 5816 5817 5819 5818 5811 5807 5800 5796 5792 5791 5787 5781 5775 5770 5769 5766 5764 5761 5758 5756 5749 5744 5742 5736 5734 5735 5735 5735 5734 5734 5734 5734 5732 5730 5729 5728 5725
5769 5765 5738 5708 5700 5722 5734 5731 5773 5788 5795 5805 5820 5825 5822 5818 5814 5808 5803 5798 5795 5794 5787 5779 5771 5764 5763 5761 5756 5749 5745 5743 5739 5735 5733 5726 5723 5723 5724 5725 5724 5722 5722 5722 5723 5723 5722 5719 5719
5764 5752 5774 5726 5720 5713 5731 5753 5783 5785 5788 5795 5796 5801 5798 5794 5792 5786 5786 5786 5783 5782 5775 5770 5756 5752 5753 5746 5745 5736 5731 5726 5722 5719 5718 5715 5715 5713 5711 5711 5711 5710 5709 5707 5709 5709 5709 5712 5710
5781 5781 5742 5726 5706 5707 5723 5738 5752 5769 5774 5777 5775 5774 5776 5779 5779 5774 5770 5767 5762 5759 5755 5753 5747 5737 5739 5736 5734 5727 5717 5714 5712 5709 5708 5705 5704 5705 5703 5701 5698 5698 5698 5699 5696 5697 5694 5697 5697
5763 5755 5745 5745 5729 5720 5716 5730 5769 5764 5770 5763 5762 5762 5764 5766 5766 5765 5762 5758 5751 5744 5740 5738 5733 5717 5719 5712 5708 5714 5695 5706 5705 5702 5699 5699 5698 5696 5693 5692 5689 5685 5686 5689 5686 5685 5683 5686 5685
5780 5771 5755 5729 5732 5715 5718 5723 5765 5763 5758 5754 5751 5750 5753 5758 5759 5757 5755 5750 5742 5736 5722 5717 5722 5717 5682 5701 5685 5695 5695 5693 5695 5695 5693 5689 5687 5688 5685 5682 5676 5673 5674 5676 5678 5675 5673 5677 5674